Preview of NWS' New Version of Forecast
This preview is not operational and should not be used for support decisions.

Regional Weather Roundup (RWR)

Issued by National Weather Service (NWS)

                            
000
ASUS44 KMEG 200510
RWRTN 
TENNESSEE HOURLY STATE WEATHER ROUNDUP
NATIONAL WEATHER SERVICE MEMPHIS TN
1200 AM CDT TUE AUG 20 2019

TNZ002-004-019-021-049-052-054-088>092-200600-
WEST TENNESSEE
  
CITY           SKY/WX    TMP DP  RH WIND       PRES   REMARKS
MEMPHIS INTL   FAIR      83  76  79 S12       30.04S HX  91           
NWS MEMPHIS      N/A     80 N/A N/A MISG        N/A                   
JACKSON        FAIR      77  76  96 S3        30.05S                  
DYERSBURG      FAIR      77  77 100 CALM      30.04F                  
SOMERVILLE     CLEAR     79  75  89 CALM      30.04S                  
COVINGTON      CLEAR     77  75  94 SE5       30.03S                  
UNION CITY     CLEAR     77  77 100 S3        30.02S                  
BOLIVAR        CLEAR     77  75  94 CALM      30.04S                  
PARIS          CLEAR     75  73  94 CALM      30.04F                  
HUNTINGDON     CLEAR     75  73  94 CALM      30.04S                  
LEXINGTON      CLEAR     75  73  94 CALM      30.04S                  
SAVANNAH       PTCLDY    77  75  94 CALM      30.03F                  
$$

TNZ008-025-027-028-033-062-065-066-200600-
NORTH MIDDLE TENNESSEE
  
CITY           SKY/WX    TMP DP  RH WIND       PRES   REMARKS
NASHVILLE      FAIR      80  71  74 S5        30.05F                  
DICKSON        CLEAR     79  72  78 SW3       30.06S                  
PORTLAND       CLEAR     75  70  83 S3        30.05S                  
CLARKSVILLE    FAIR      77  73  87 CALM      30.04S                  
LEBANON        MOCLDY    79  70  73 S6        30.04S                  
SMYRNA         FAIR      77  71  82 CALM      30.06F                  
MURFREESBORO   MOCLDY    79  70  73 CALM      30.04F                  
COOKEVILLE     CLEAR     72  70  94 CALM      30.08F                  
LIVINGSTON     CLEAR     77  66  69 SW5       30.09F                  
GALLATIN       CLEAR     75  72  88 CALM      30.07F                  
CROSSVILLE     FAIR      68  66  93 CALM      30.15F                  
ROCKWOOD       CLEAR     72  66  83 S6        30.14S                  
$$

TNZ061-075-076-078-094-096-097-200600-
SOUTH MIDDLE TENNESSEE
  
CITY           SKY/WX    TMP DP  RH WIND       PRES   REMARKS
LAWRENCEBURG   PTCLDY    73  70  88 CALM      30.07F                  
LEWISBURG      CLEAR     72  70  94 CALM      30.06F                  
FAYETTEVILLE   CLEAR     75  70  83 CALM      30.08F                  
TULLAHOMA      CLEAR     72  70  94 CALM      30.08F                  
WINCHESTER     MOCLDY    72  70  94 CALM      30.10R                  
MCMINNVILLE    CLEAR     72  70  94 CALM      30.09F                  
COLUMBIA       CLEAR     77  77 100 S3        30.04F                  
SHELBYVILLE    CLEAR     73  70  88 CALM      30.07F                  
$$

TNZ017-018-042-046-047-200600-
NORTHEAST TENNESSEE
  
CITY           SKY/WX    TMP DP  RH WIND       PRES   REMARKS
TRI CITIES     FAIR      69  65  86 N3        30.13F                  
ELIZABETHTON   FAIR      70  66  88 CALM      30.14S                  
GREENEVILLE    CLEAR     72  66  83 CALM      30.13S                  
$$

TNZ012-013-036-069-073-074-200600-
CENTRAL EAST TENNESSEE
  
CITY           SKY/WX    TMP DP  RH WIND       PRES   REMARKS
KNOXVILLE      FAIR      74  67  78 SW6       30.10S                  
OAK RIDGE      FAIR      78  68  71 SW3       30.11F                  
DOWNTOWN KNOXV CLEAR     72  70  94 CALM      30.10F                  
GATLINBURG     CLEAR     72  70  94 CALM      30.10F                  
MORRISTOWN     PTCLDY    73  70  88 CALM      30.11F                  
JACKSBORO      CLEAR     72  70  94 CALM      30.14S                  
$$

TNZ083-085-099-200600-
SOUTHEAST TENNESSEE
  
CITY           SKY/WX    TMP DP  RH WIND       PRES   REMARKS
CHATTANOOGA    FAIR      75  71  87 NW3       30.10F                  
DAYTON         CLOUDY    75  72  88 CALM      30.09F                  
$$

SKY/WX REPORTED AS FAIR MEANS FEW OR NO CLOUDS BELOW
12 THOUSAND FEET.